Location: Czu?�w
(50.1404°N, 18.9919°E)
Time: 02:30:14
(UTC+00:00)

Cosmos 2263 Rocket - Pass Details

Date: 27 October 2020
Orbit: 822 x 850 km, 71.0° (Epoch: 24 November)

Event Time Altitude Azimuth Distance (km) Brightness Sun altitude
Rises 17:27:07 0° 333° (NNW) 3,420 5.8 -19.5°
Reaches altitude 10° 17:29:48 10° 342° (NNW) 2,484 4.9 -19.9°
Maximum altitude 17:35:01 35° 48° (NE) 1,338 2.9 -20.8°
Enters shadow 17:35:31 35° 59° (ENE) 1,353 2.8 -20.8°
